{"data":{"norad_id":68117,"epoch":"2026-09-20T03:17:53.278080Z","epoch_age_seconds":87492,"freshness":"FRESH","line1":"1 68117U 26044S   26263.13742220  .00019242  00000+0  59609-3 0  9998","line2":"2 68117  97.2861 222.1166 0001214  96.7807 263.3574 15.33484661 31389","mean_motion":15.33484661,"eccentricity":0.0001214,"inclination_deg":97.2861,"raan_deg":222.1166,"arg_perigee_deg":96.7807,"mean_anomaly_deg":263.3574,"bstar":0.00059609,"rev_number":3138,"period_min":93.903775930889,"perigee_km":464.59436534142,"apogee_km":466.25598223722,"semimajor_km":6843.5621737893,"source":"CELESTRAK","updated_at":"2026-09-20T09:00:43.788517Z"}}